Frankfort, MI

12:06 AM EST on December 16, 2019 (GMT -0500)
Frankfort

Weather History for KFKS - October, 2019

Change the Weather History Date:

Wednesday, October 23, 2019

  Actual Average (KMBL) Record (KMBL)
Temperature  
Mean Temperature 48 °F -  
Max Temperature 50 °F 58 °F 78 °F (1963)
Min Temperature 46 °F 41 °F 26 °F (2002)
Degree Days  
Heating Degree Days 17    
Moisture  
Dew Point 36 °F    
Average Humidity 61    
Maximum Humidity 75    
Minimum Humidity 54    
Precipitation  
Precipitation 0.00 in - - ()
Sea Level Pressure  
Sea Level Pressure 29.78 in    
Wind  
Wind Speed 12 mph (WSW)    
Max Wind Speed 18 mph    
Max Gust Speed 31 mph    
Visibility 10 miles    
Events Rain    
Averages and records for this station are not official NWS values.
T = Trace of Precipitation, MM = Missing Value Source: NWS Daily Summary

Daily Weather History Graph

Daily Weather History Graph

Search for Another Location

Airport or City:

Astronomy

Oct. 23, 2019 Rise Set
Actual Time 8:10 AM EDT 6:47 PM EDT
Civil Twilight 7:40 AM EDT 7:17 PM EDT
Nautical Twilight 7:06 AM EDT 7:51 PM EDT
Astronomical Twilight 6:32 AM EDT 8:24 PM EDT
Moon 2:10 AM EDT (10/23) 4:53 PM EDT (10/23)
Length of Visible Light 11h 36m
Length of Day
10h 37m
Waning Crescent, 27% of the Moon is Illuminated
Oct 23
Waning Crescent
Oct 27
New
Nov 4
First Quarter
Nov 12
Full
Nov 19
Last Quarter

Hourly Weather History & Observations

Time (EDT) Temp. Dew Point Humidity Pressure Visibility Wind Dir Wind Speed Gust Speed Precip Events Conditions
12:15 AM 48.2 °F 37.0 °F 65% 29.58 in 10.0 mi WSW 16.1 mph 26.5 mph N/A Rain Light Rain
12:35 AM 48.4 °F 37.4 °F 66% 29.58 in 10.0 mi WSW 13.8 mph 27.6 mph N/A   Overcast
12:59 AM 48.4 °F 36.7 °F 64% 29.58 in 10.0 mi WSW 13.8 mph 23.0 mph N/A   Overcast
1:17 AM 48.4 °F 37.2 °F 65% 29.59 in 10.0 mi WSW 12.7 mph 25.3 mph N/A   Overcast
1:35 AM 48.2 °F 36.3 °F 63% 29.59 in 10.0 mi WSW 15.0 mph 23.0 mph N/A   Overcast
1:55 AM 48.2 °F 36.0 °F 63% 29.59 in 10.0 mi WSW 11.5 mph 23.0 mph N/A   Overcast
2:15 AM 48.2 °F 36.3 °F 63% 29.60 in 10.0 mi West 12.7 mph 27.6 mph N/A   Overcast
2:38 AM 48.2 °F 35.6 °F 62% 29.60 in 10.0 mi WSW 13.8 mph 26.5 mph N/A   Overcast
2:56 AM 48.2 °F 35.2 °F 61% 29.61 in 10.0 mi WSW 13.8 mph 24.2 mph N/A   Overcast
3:15 AM 48.2 °F 35.8 °F 62% 29.61 in 10.0 mi WSW 16.1 mph 24.2 mph N/A   Overcast
3:35 AM 48.2 °F 35.6 °F 62% 29.61 in 10.0 mi West 12.7 mph 25.3 mph N/A   Overcast
3:59 AM 48.2 °F 35.2 °F 61% 29.62 in 10.0 mi West 15.0 mph 24.2 mph N/A   Overcast
4:17 AM 48.4 °F 35.4 °F 61% 29.62 in 10.0 mi WSW 12.7 mph 23.0 mph N/A   Overcast
4:35 AM 48.2 °F 35.8 °F 62% 29.62 in 10.0 mi WSW 11.5 mph 29.9 mph N/A   Overcast
4:36 AM 48.2 °F 35.8 °F 62% 29.62 in 10.0 mi WSW 13.8 mph 29.9 mph N/A   Overcast
4:55 AM 48.2 °F 35.1 °F 60% 29.63 in 10.0 mi West 18.4 mph 29.9 mph N/A   Overcast
4:56 AM 48.2 °F 35.1 °F 60% 29.63 in 10.0 mi WSW 16.1 mph 29.9 mph N/A   Overcast
5:15 AM 48.2 °F 34.9 °F 60% 29.63 in 10.0 mi West 15.0 mph 24.2 mph N/A   Overcast
5:20 AM 48.2 °F 34.9 °F 60% 29.63 in 10.0 mi West 10.4 mph 25.3 mph N/A   Overcast
5:38 AM 48.4 °F 35.1 °F 60% 29.64 in 10.0 mi West 13.8 mph 28.8 mph N/A   Overcast
5:56 AM 48.4 °F 35.4 °F 61% 29.64 in 10.0 mi WSW 13.8 mph 24.2 mph N/A   Overcast
6:15 AM 48.4 °F 35.2 °F 60% 29.65 in 10.0 mi WSW 15.0 mph 25.3 mph N/A   Overcast
6:16 AM 48.4 °F 35.2 °F 60% 29.65 in 10.0 mi West 12.7 mph 25.3 mph N/A   Overcast
6:35 AM 48.4 °F 35.1 °F 60% 29.66 in 10.0 mi West 11.5 mph 21.9 mph N/A   Overcast
6:36 AM 48.6 °F 35.1 °F 60% 29.66 in 10.0 mi West 12.7 mph 21.9 mph N/A   Overcast
6:59 AM 48.6 °F 34.7 °F 59% 29.67 in 10.0 mi West 13.8 mph 28.8 mph N/A   Overcast
7:17 AM 48.6 °F 34.9 °F 59% 29.67 in 10.0 mi WSW 13.8 mph 24.2 mph N/A   Overcast
7:35 AM 48.4 °F 34.7 °F 59% 29.68 in 10.0 mi West 16.1 mph 24.2 mph N/A   Overcast
7:55 AM 48.6 °F 34.3 °F 58% 29.69 in 10.0 mi West 17.3 mph 27.6 mph N/A   Overcast
7:56 AM 48.4 °F 34.2 °F 58% 29.69 in 10.0 mi West 15.0 mph 27.6 mph N/A   Overcast
8:15 AM 48.4 °F 33.6 °F 57% 29.70 in 10.0 mi West 15.0 mph 24.2 mph N/A   Overcast
8:38 AM 48.4 °F 34.2 °F 58% 29.71 in 10.0 mi WSW 15.0 mph 21.9 mph N/A   Overcast
8:56 AM 47.8 °F 33.1 °F 57% 29.72 in 10.0 mi WSW 16.1 mph 24.2 mph N/A   Mostly Cloudy
9:15 AM 47.7 °F 33.4 °F 58% 29.73 in 10.0 mi WSW 17.3 mph 27.6 mph N/A   Overcast
9:16 AM 47.7 °F 33.3 °F 57% 29.73 in 10.0 mi WSW 16.1 mph 25.3 mph N/A   Overcast
9:35 AM 47.8 °F 32.7 °F 56% 29.74 in 10.0 mi West 17.3 mph 31.1 mph N/A   Overcast
9:59 AM 48.4 °F 32.5 °F 54% 29.76 in 10.0 mi West 10.4 mph 31.1 mph N/A   Overcast
10:17 AM 48.6 °F 33.8 °F 57% 29.77 in 10.0 mi WSW 12.7 mph 20.7 mph N/A   Overcast
10:35 AM 49.1 °F 34.5 °F 57% 29.78 in 10.0 mi WSW 17.3 mph 24.2 mph N/A   Overcast
10:55 AM 48.2 °F 34.7 °F 60% 29.78 in 10.0 mi WSW 13.8 mph 23.0 mph N/A   Overcast
11:15 AM 48.6 °F 35.2 °F 60% 29.79 in 10.0 mi West 12.7 mph 21.9 mph N/A   Overcast
11:38 AM 49.6 °F 34.2 °F 55% 29.79 in 10.0 mi West 16.1 mph 23.0 mph N/A   Overcast
11:56 AM 49.1 °F 36.5 °F 62% 29.80 in 10.0 mi WSW 10.4 mph 20.7 mph N/A   Overcast
12:15 PM 48.2 °F 36.5 °F 64% 29.81 in 10.0 mi WSW 15.0 mph 21.9 mph N/A   Overcast
12:35 PM 48.2 °F 36.3 °F 63% 29.82 in 10.0 mi SW 13.8 mph 21.9 mph N/A   Overcast
12:59 PM 48.2 °F 36.7 °F 64% 29.83 in 10.0 mi SW 15.0 mph 21.9 mph N/A   Overcast
1:17 PM 48.6 °F 36.3 °F 63% 29.83 in 10.0 mi WSW 9.2 mph 21.9 mph N/A   Overcast
1:35 PM 48.6 °F 35.8 °F 61% 29.83 in 10.0 mi WSW 10.4 mph 19.6 mph N/A   Overcast
1:55 PM 49.1 °F 36.0 °F 61% 29.83 in 10.0 mi WSW 12.7 mph 21.9 mph N/A   Overcast
2:15 PM 49.1 °F 35.8 °F 60% 29.84 in 10.0 mi West 12.7 mph 21.9 mph N/A   Overcast
2:38 PM 48.9 °F 34.7 °F 58% 29.85 in 10.0 mi WSW 11.5 mph 18.4 mph N/A   Overcast
2:56 PM 49.1 °F 34.7 °F 58% 29.85 in 10.0 mi WSW 11.5 mph 19.6 mph N/A   Overcast
3:15 PM 49.3 °F 34.9 °F 58% 29.85 in 10.0 mi WSW 15.0 mph 20.7 mph N/A   Overcast
3:59 PM 49.3 °F 34.7 °F 57% 29.86 in 10.0 mi WSW 12.7 mph 19.6 mph N/A   Overcast
4:17 PM 50.0 °F 35.8 °F 58% 29.87 in 10.0 mi SW 10.4 mph 16.1 mph N/A   Overcast
4:35 PM 50.2 °F 35.8 °F 58% 29.88 in 10.0 mi WSW 10.4 mph 19.6 mph N/A   Overcast
4:36 PM 50.2 °F 36.0 °F 58% 29.88 in 10.0 mi WSW 12.7 mph 19.6 mph N/A   Overcast
4:55 PM 50.4 °F 36.1 °F 58% 29.87 in 10.0 mi WSW 9.2 mph - N/A   Overcast
4:56 PM 50.4 °F 36.1 °F 58% 29.87 in 10.0 mi WSW 11.5 mph - N/A   Overcast
5:15 PM 50.2 °F 36.5 °F 59% 29.87 in 10.0 mi WSW 10.4 mph 17.3 mph N/A   Mostly Cloudy
5:38 PM 50.4 °F 37.0 °F 60% 29.89 in 10.0 mi SW 6.9 mph - N/A   Mostly Cloudy
5:56 PM 50.2 °F 37.0 °F 61% 29.89 in 10.0 mi WSW 6.9 mph - N/A   Scattered Clouds
6:15 PM 50.5 °F 36.9 °F 59% 29.90 in 10.0 mi WSW 5.8 mph - N/A   Clear
6:16 PM 50.5 °F 36.9 °F 59% 29.90 in 10.0 mi WSW 5.8 mph - N/A   Clear
6:35 PM 49.5 °F 37.2 °F 63% 29.90 in 10.0 mi WSW 4.6 mph - N/A   Clear
6:59 PM 49.3 °F 37.0 °F 63% 29.90 in 10.0 mi WSW 3.5 mph - N/A   Clear
7:17 PM 48.9 °F 37.2 °F 64% 29.91 in 10.0 mi West 4.6 mph - N/A   Clear
7:35 PM 49.3 °F 36.5 °F 61% 29.92 in 10.0 mi West 5.8 mph - N/A   Clear
7:55 PM 49.1 °F 36.7 °F 62% 29.93 in 10.0 mi WSW 4.6 mph - N/A   Clear
7:56 PM 49.1 °F 36.7 °F 62% 29.93 in 10.0 mi WSW 3.5 mph - N/A   Clear
8:15 PM 48.7 °F 36.9 °F 64% 29.94 in 10.0 mi West 4.6 mph - N/A   Clear
8:38 PM 50.0 °F 36.7 °F 60% 29.94 in 10.0 mi WNW 3.5 mph - N/A   Clear
8:56 PM 50.2 °F 37.0 °F 61% 29.94 in 10.0 mi Calm Calm - N/A   Mostly Cloudy
9:15 PM 47.1 °F 38.1 °F 71% 29.95 in 10.0 mi Calm Calm - N/A   Overcast
9:16 PM 46.9 °F 37.9 °F 71% 29.95 in 10.0 mi Calm Calm - N/A   Overcast
9:35 PM 46.9 °F 38.7 °F 73% 29.96 in 10.0 mi Calm Calm - N/A   Overcast
9:59 PM 48.6 °F 38.3 °F 68% 29.98 in 10.0 mi Calm Calm - N/A   Overcast
10:17 PM 50.9 °F 37.6 °F 60% 29.98 in 10.0 mi West 3.5 mph - N/A Rain Light Rain
10:35 PM 50.2 °F 38.5 °F 64% 29.98 in 10.0 mi WNW 4.6 mph - N/A Rain Light Rain
10:36 PM 50.2 °F 38.5 °F 64% 29.98 in 10.0 mi West 5.8 mph - N/A Rain Light Rain
10:55 PM 49.3 °F 39.4 °F 69% 29.98 in 10.0 mi Calm Calm - N/A Rain Light Rain
10:56 PM 49.3 °F 39.4 °F 69% 29.98 in 10.0 mi Calm Calm - N/A Rain Light Rain
11:15 PM 48.7 °F 40.1 °F 72% 29.98 in 10.0 mi WNW 3.5 mph - N/A Rain Light Rain
11:38 PM 47.8 °F 40.1 °F 75% 29.98 in 10.0 mi NW 3.5 mph - N/A Rain Light Rain
11:56 PM 48.2 °F 39.0 °F 71% 29.97 in 10.0 mi WNW 6.9 mph - N/A   Light Drizzle